, FL

(GMT )
Crestview

Weather History for KEGI - October, 2012

Change the Weather History Date:

Monday, October 15, 2012

  Actual Average Record
Temperature  
Mean Temperature 74 °F -  
Max Temperature 86 °F - - ()
Min Temperature 59 °F - - ()
Cooling Degree Days 8    
Growing Degree Days 24 (Base 50)    
Moisture  
Dew Point 63 °F    
Average Humidity 89    
Maximum Humidity 100    
Minimum Humidity 39    
Precipitation  
Precipitation 0.00 in - - ()
Sea Level Pressure  
Sea Level Pressure 29.97 in    
Wind  
Wind Speed 1 mph (NW)    
Max Wind Speed 13 mph    
Max Gust Speed -    
Visibility 4 miles    
Events Fog    
T = Trace of Precipitation, MM = Missing Value Source: NWS Daily Summary

Daily Weather History Graph

Daily Weather History Graph

Search for Another Location

Airport or City:

Trip Planner

Search our weather history database for the weather conditions in past years. The results will help you decide how hot, cold, wet, or windy it might be!

Date:

Astronomy

Oct. 15, 2012 Rise Set
Actual Time 6:48 AM CDT 6:14 PM CDT
Civil Twilight 6:24 AM CDT 6:38 PM CDT
Nautical Twilight 5:56 AM CDT 7:06 PM CDT
Astronomical Twilight 5:28 AM CDT 7:34 PM CDT
Moon 6:54 AM CDT (10/15) 6:19 PM CDT (10/15)
Length of Visible Light 12h 13m
Length of Day
11h 25m
New Moon, 0% of the Moon is Illuminated
Oct 15
New Moon
Oct 21
First Quarter
Oct 29
Full
Nov 6
Last Quarter
Nov 13
New

Hourly Weather History & Observations

Time (CDT) Temp. Heat Index Dew Point Humidity Pressure Visibility Wind Dir Wind Speed Gust Speed Precip Events Conditions
12:43 AM 64.4 °F - 64.4 °F 100% 30.01 in 2.5 mi Calm Calm - N/A   Clear
12:44 AM 64.4 °F - 64.4 °F 100% 30.01 in 2.0 mi Calm Calm - N/A   Clear
12:45 AM 66.2 °F - 64.4 °F 94% 30.01 in 1.5 mi Calm Calm - N/A   Clear
12:47 AM 66.2 °F - 64.4 °F 94% 30.01 in 1.2 mi Calm Calm - N/A   Clear
12:48 AM 66.2 °F - 64.4 °F 94% 30.01 in 1.0 mi Calm Calm - N/A   Clear
12:54 AM 64.4 °F - 62.6 °F 94% 30.01 in 1.2 mi Calm Calm - N/A   Clear
12:55 AM 64.8 °F - 63.0 °F 94% 30.01 in 1.0 mi Calm Calm - N/A   Clear
12:57 AM 64.4 °F - 62.6 °F 94% 30.01 in 2.0 mi Calm Calm - N/A   Clear
12:58 AM 64.4 °F - 62.6 °F 94% 30.01 in 2.5 mi Calm Calm - N/A   Clear
12:59 AM 64.4 °F - 62.6 °F 94% 30.01 in 4.0 mi Calm Calm - N/A   Clear
1:55 AM 66.4 °F - 66.2 °F 99% 29.99 in 5.0 mi Calm Calm - N/A   Clear
2:27 AM 66.2 °F - 66.2 °F 100% 29.98 in 2.5 mi Calm Calm - N/A   Clear
2:28 AM 66.2 °F - 66.2 °F 100% 29.98 in 2.0 mi Calm Calm - N/A   Clear
2:29 AM 66.2 °F - 66.2 °F 100% 29.98 in 1.5 mi Calm Calm - N/A   Clear
2:30 AM 66.2 °F - 66.2 °F 100% 29.98 in 1.2 mi Calm Calm - N/A   Clear
2:31 AM 66.2 °F - 64.4 °F 94% 29.98 in 1.0 mi Calm Calm - N/A   Clear
2:33 AM 66.2 °F - 64.4 °F 94% 29.98 in 0.8 mi Calm Calm - N/A   Clear
2:51 AM 64.4 °F - 64.4 °F 100% 29.98 in 1.0 mi Calm Calm - N/A   Clear
2:54 AM 64.4 °F - 64.4 °F 100% 29.98 in 1.2 mi Calm Calm - N/A   Clear
2:55 AM 65.1 °F - 64.8 °F 99% 29.98 in 1.0 mi Calm Calm - N/A   Clear
2:57 AM 64.4 °F - 64.4 °F 100% 29.98 in 1.5 mi Calm Calm - N/A   Clear
3:01 AM 64.4 °F - 64.4 °F 100% 29.98 in 2.0 mi Calm Calm - N/A   Clear
3:02 AM 64.4 °F - 64.4 °F 100% 29.98 in 2.5 mi Calm Calm - N/A   Clear
3:03 AM 64.4 °F - 64.4 °F 100% 29.98 in 3.0 mi Calm Calm - N/A   Clear
3:21 AM 64.4 °F - 64.4 °F 100% 29.98 in 2.5 mi Calm Calm - N/A   Clear
3:22 AM 64.4 °F - 64.4 °F 100% 29.98 in 2.0 mi Calm Calm - N/A   Clear
3:23 AM 64.4 °F - 64.4 °F 100% 29.98 in 1.8 mi Calm Calm - N/A   Clear
3:25 AM 64.4 °F - 64.4 °F 100% 29.98 in 1.2 mi Calm Calm - N/A   Clear
3:26 AM 64.4 °F - 64.4 °F 100% 29.98 in 1.0 mi Calm Calm - N/A   Clear
3:28 AM 64.4 °F - 64.4 °F 100% 29.98 in 0.8 mi Calm Calm - N/A   Clear
3:32 AM 64.4 °F - 64.4 °F 100% 29.98 in 0.5 mi Calm Calm - N/A Fog Fog
3:34 AM 64.4 °F - 64.4 °F 100% 29.98 in 0.8 mi Calm Calm - N/A   Clear
3:49 AM 64.4 °F - 62.6 °F 94% 29.97 in 1.0 mi Calm Calm - N/A   Clear
3:50 AM 64.4 °F - 62.6 °F 94% 29.97 in 1.2 mi Calm Calm - N/A   Clear
3:55 AM 63.3 °F - 63.0 °F 99% 29.97 in 1.2 mi Calm Calm - N/A   Clear
3:56 AM 62.6 °F - 62.6 °F 100% 29.97 in 2.5 mi Calm Calm - N/A   Clear
3:57 AM 62.6 °F - 62.6 °F 100% 29.97 in 4.0 mi Calm Calm - N/A   Clear
4:55 AM 63.7 °F - 62.8 °F 97% 29.97 in 10.0 mi Calm Calm - N/A   Clear
5:04 AM 62.6 °F - 60.8 °F 94% 29.97 in 2.5 mi Calm Calm - N/A   Clear
5:05 AM 62.6 °F - 60.8 °F 94% 29.97 in 2.0 mi Calm Calm - N/A   Clear
5:07 AM 62.6 °F - 60.8 °F 94% 29.97 in 1.8 mi Calm Calm - N/A   Clear
5:10 AM 62.6 °F - 60.8 °F 94% 29.97 in 1.2 mi Calm Calm - N/A   Clear
5:13 AM 62.6 °F - 62.6 °F 100% 29.97 in 1.5 mi Calm Calm - N/A   Clear
5:15 AM 62.6 °F - 62.6 °F 100% 29.97 in 2.0 mi Calm Calm - N/A   Clear
5:16 AM 62.6 °F - 62.6 °F 100% 29.97 in 2.5 mi Calm Calm - N/A   Clear
5:18 AM 62.6 °F - 62.6 °F 100% 29.97 in 3.0 mi Calm Calm - N/A   Clear
5:55 AM 62.1 °F - 60.6 °F 95% 29.97 in 10.0 mi South 3.5 mph - N/A   Clear
6:55 AM 70.7 °F - 69.3 °F 95% 29.99 in 10.0 mi WSW 3.5 mph - N/A   Partly Cloudy
7:55 AM 74.1 °F - 71.2 °F 91% 29.98 in 10.0 mi West 6.9 mph - N/A   Partly Cloudy
8:55 AM 73.8 °F - 69.3 °F 86% 29.99 in 10.0 mi West 8.1 mph - N/A   Mostly Cloudy
9:55 AM 76.5 °F - 68.5 °F 76% 29.99 in 10.0 mi West 9.2 mph - N/A   Mostly Cloudy
10:55 AM 80.1 °F 82.8 °F 68.7 °F 68% 29.98 in 10.0 mi NW 11.5 mph - N/A   Mostly Cloudy
11:55 AM 81.3 °F 84.0 °F 67.6 °F 63% 29.96 in 10.0 mi WNW 6.9 mph - N/A   Scattered Clouds
12:55 PM 83.7 °F 86.0 °F 66.2 °F 56% 29.93 in 10.0 mi NW 8.1 mph - N/A   Scattered Clouds
1:55 PM 83.7 °F 84.9 °F 63.5 °F 51% 29.90 in 10.0 mi NW 6.9 mph - N/A   Mostly Cloudy
2:55 PM 85.6 °F 85.7 °F 60.6 °F 43% 29.88 in 10.0 mi NW 12.7 mph - N/A   Scattered Clouds
3:55 PM 84.4 °F 83.5 °F 56.7 °F 39% 29.88 in 10.0 mi NW 10.4 mph - N/A   Partly Cloudy
4:55 PM 82.0 °F 82.1 °F 59.0 °F 45% 29.88 in 10.0 mi North 10.4 mph - N/A   Partly Cloudy
5:55 PM 78.4 °F - 59.4 °F 52% 29.89 in 10.0 mi NNW 6.9 mph - N/A   Partly Cloudy
6:55 PM 72.3 °F - 57.9 °F 60% 29.91 in 10.0 mi NNW 5.8 mph - N/A   Partly Cloudy
7:55 PM 69.4 °F - 56.8 °F 64% 29.92 in 10.0 mi NNW 4.6 mph - N/A   Clear
8:55 PM 67.6 °F - 54.7 °F 63% 29.94 in 10.0 mi NNW 5.8 mph - N/A   Clear
9:55 PM 64.6 °F - 54.7 °F 70% 29.95 in 10.0 mi NNW 2.3 mph - N/A   Clear
10:55 PM 62.4 °F - 54.0 °F 74% 29.96 in 10.0 mi North 5.8 mph - N/A   Clear
11:55 PM 59.4 °F - 53.1 °F 80% 29.96 in 10.0 mi NNW 4.6 mph - N/A   Clear